| time (UTC) | temp C | wind direction | speed KPH | gust KPH | rain 1hr cm | rain 24hr cm | rain mn cm | humidity % | barometer mb |
| 20260505171705 | 14 | 220 | 6.4 | 11.3 | 0.00 | 0.00 | 0.00 | 76 | 1016.5 |
| 20260505171204 | 14 | 195 | 6.4 | 11.3 | 0.00 | 0.00 | 0.00 | 76 | 1016.6 |
| 20260505170705 | 14 | 179 | 6.4 | 11.3 | 0.00 | 0.00 | 0.00 | 76 | 1016.6 |
| 20260505170205 | 14 | 197 | 6.4 | 11.3 | 0.00 | 0.00 | 0.00 | 75 | 1016.6 |
| 20260505165705 | 14 | 210 | 6.4 | 11.3 | 0.00 | 0.00 | 0.00 | 76 | 1016.5 |
| 20260505165204 | 14 | 190 | 4.8 | 11.3 | 0.00 | 0.00 | 0.00 | 76 | 1016.5 |
| 20260505164705 | 14 | 187 | 4.8 | 8.0 | 0.00 | 0.00 | 0.00 | 76 | 1016.4 |
| 20260505164204 | 14 | 242 | 3.2 | 8.0 | 0.00 | 0.00 | 0.00 | 77 | 1016.3 |
| 20260505163704 | 13 | 241 | 3.2 | 8.0 | 0.00 | 0.00 | 0.00 | 78 | 1016.2 |
| 20260505163204 | 13 | 281 | 3.2 | 8.0 | 0.00 | 0.00 | 0.00 | 78 | 1016.3 |
| 20260505162705 | 13 | 237 | 1.6 | 6.4 | 0.00 | 0.00 | 0.00 | 78 | 1016.3 |
| 20260505162204 | 13 | 282 | 1.6 | 4.8 | 0.00 | 0.00 | 0.00 | 78 | 1016.3 |
| 20260505161705 | 13 | 282 | 1.6 | 6.4 | 0.00 | 0.00 | 0.00 | 78 | 1016.3 |
| 20260505161204 | 13 | 10 | 3.2 | 6.4 | 0.00 | 0.00 | 0.00 | 78 | 1016.2 |
| 20260505160705 | 13 | 338 | 1.6 | 6.4 | 0.00 | 0.00 | 0.00 | 78 | 1016.1 |
| 20260505160204 | 13 | 272 | 3.2 | 6.4 | 0.00 | 0.00 | 0.00 | 78 | 1016.2 |
| 20260505153204 | 12 | 266 | 3.2 | 6.4 | 0.00 | 0.00 | 0.00 | 79 | 1016.3 |
| 20260505152704 | 12 | 266 | 3.2 | 6.4 | 0.00 | 0.00 | 0.00 | 79 | 1016.2 |
| 20260505152204 | 12 | 266 | 3.2 | 6.4 | 0.00 | 0.00 | 0.00 | 79 | 1016.2 |
| 20260505151205 | 12 | 279 | 0.0 | 4.8 | 0.00 | 0.00 | 0.00 | 80 | 1016.1 |
| 20260505150204 | 12 | 350 | 0.0 | 0.0 | 0.00 | 0.00 | 0.00 | 80 | 1016.0 |
| 20260505140204 | 12 | 355 | 3.2 | 6.4 | 0.00 | 0.00 | 0.00 | 79 | 1015.7 |
| 20260505130204 | 12 | 295 | 0.0 | 4.8 | 0.00 | 0.00 | 0.00 | 78 | 1015.1 |
| 20260505124705 | 12 | 299 | 1.6 | 4.8 | 0.00 | 0.00 | 0.00 | 78 | 1015.3 |
| 20260505124205 | 12 | 299 | 1.6 | 3.2 | 0.00 | 0.00 | 0.00 | 77 | 1015.3 |
| 20260505123704 | 12 | 299 | 0.0 | 3.2 | 0.00 | 0.00 | 0.00 | 77 | 1015.3 |
| 20260505123204 | 12 | 299 | 0.0 | 0.0 | 0.00 | 0.00 | 0.00 | 77 | 1015.3 |
| 20260505122204 | 12 | 339 | 0.0 | 9.7 | 0.00 | 0.00 | 0.00 | 77 | 1015.4 |
| 20260505120704 | 12 | 296 | 3.2 | 8.0 | 0.00 | 0.00 | 0.00 | 77 | 1015.4 |
| 20260505120205 | 12 | 306 | 4.8 | 8.0 | 0.00 | 0.00 | 0.00 | 77 | 1015.4 |
| 20260505115705 | 12 | 297 | 4.8 | 8.0 | 0.00 | 0.00 | 0.00 | 77 | 1015.4 |
| 20260505115205 | 12 | 321 | 4.8 | 8.0 | 0.00 | 0.00 | 0.00 | 77 | 1015.3 |
| 20260505114704 | 12 | 316 | 4.8 | 8.0 | 0.00 | 0.00 | 0.00 | 78 | 1015.2 |
| 20260505114204 | 12 | 327 | 4.8 | 8.0 | 0.00 | 0.00 | 0.00 | 78 | 1015.2 |
| 20260505113704 | 12 | 313 | 3.2 | 9.7 | 0.00 | 0.00 | 0.00 | 78 | 1015.3 |
| 20260505113204 | 12 | 319 | 4.8 | 9.7 | 0.00 | 0.00 | 0.00 | 79 | 1015.4 |
| 20260505112704 | 12 | 347 | 3.2 | 9.7 | 0.00 | 0.00 | 0.00 | 79 | 1015.3 |
| 20260505112204 | 12 | 310 | 1.6 | 6.4 | 0.00 | 0.00 | 0.00 | 79 | 1015.3 |
| 20260505111704 | 12 | 340 | 1.6 | 6.4 | 0.00 | 0.00 | 0.00 | 80 | 1015.2 |
| 20260505111204 | 12 | 317 | 1.6 | 4.8 | 0.00 | 0.00 | 0.00 | 80 | 1015.2 |
| 20260505110205 | 12 | 304 | 1.6 | 6.4 | 0.00 | 0.00 | 0.00 | 81 | 1015.3 |
| 20260505102204 | 12 | 12 | 0.0 | 0.0 | 0.00 | 0.00 | 0.00 | 82 | 1015.2 |
| 20260505101705 | 12 | 51 | 0.0 | 0.0 | 0.00 | 0.00 | 0.00 | 82 | 1015.2 |
| 20260505100704 | 12 | 51 | 0.0 | 0.0 | 0.00 | 0.00 | 0.00 | 82 | 1015.2 |
| 20260505095705 | 12 | 22 | 0.0 | 0.0 | 0.00 | 0.00 | 0.00 | 82 | 1015.4 |
| 20260505095205 | 12 | 22 | 0.0 | 0.0 | 0.00 | 0.00 | 0.00 | 81 | 1015.4 |
| 20260505094704 | 12 | 22 | 0.0 | 0.0 | 0.00 | 0.00 | 0.00 | 81 | 1015.4 |
| 20260505094204 | 12 | 22 | 0.0 | 0.0 | 0.00 | 0.00 | 0.00 | 81 | 1015.3 |
| 20260505093706 | 12 | 22 | 0.0 | 0.0 | 0.00 | 0.00 | 0.00 | 81 | 1015.3 |
| 20260505093205 | 12 | 26 | 0.0 | 0.0 | 0.00 | 0.00 | 0.00 | 81 | 1015.3 |
| 20260505092704 | 12 | 26 | 0.0 | 0.0 | 0.00 | 0.00 | 0.00 | 81 | 1015.4 |
| 20260505092205 | 12 | 26 | 0.0 | 3.2 | 0.00 | 0.00 | 0.00 | 81 | 1015.5 |
| 20260505091705 | 12 | 26 | 0.0 | 3.2 | 0.00 | 0.00 | 0.00 | 81 | 1015.6 |
| 20260505091204 | 12 | 26 | 0.0 | 3.2 | 0.00 | 0.00 | 0.00 | 81 | 1015.7 |
| 20260505090704 | 12 | 44 | 0.0 | 0.0 | 0.00 | 0.00 | 0.00 | 81 | 1015.8 |
| 20260505085205 | 12 | 44 | 0.0 | 0.0 | 0.00 | 0.00 | 0.00 | 80 | 1015.8 |
| 20260505084705 | 12 | 34 | 0.0 | 0.0 | 0.00 | 0.00 | 0.00 | 80 | 1015.8 |
| 20260505084205 | 12 | 34 | 0.0 | 0.0 | 0.00 | 0.00 | 0.00 | 80 | 1015.8 |
| 20260505083705 | 12 | 36 | 0.0 | 0.0 | 0.00 | 0.00 | 0.00 | 81 | 1015.8 |
| 20260505083205 | 12 | 36 | 0.0 | 0.0 | 0.00 | 0.00 | 0.00 | 81 | 1015.8 |
| 20260505082204 | 12 | 36 | 0.0 | 0.0 | 0.00 | 0.00 | 0.00 | 80 | 1015.8 |
| 20260505081705 | 12 | 36 | 0.0 | 0.0 | 0.00 | 0.00 | 0.00 | 80 | 1015.9 |
| 20260505080704 | 12 | 37 | 0.0 | 0.0 | 0.00 | 0.00 | 0.00 | 80 | 1015.9 |
| 20260505080204 | 12 | 45 | 0.0 | 0.0 | 0.00 | 0.00 | 0.00 | 80 | 1016.0 |
| 20260505075705 | 12 | 355 | 0.0 | 0.0 | 0.00 | 0.00 | 0.00 | 80 | 1016.0 |
| 20260505075204 | 12 | 355 | 0.0 | 0.0 | 0.00 | 0.00 | 0.00 | 80 | 1016.0 |
| 20260505074705 | 12 | 355 | 0.0 | 0.0 | 0.00 | 0.00 | 0.00 | 80 | 1016.0 |
| 20260505074205 | 12 | 334 | 0.0 | 0.0 | 0.00 | 0.00 | 0.00 | 80 | 1016.0 |
| 20260505073705 | 12 | 320 | 0.0 | 0.0 | 0.00 | 0.00 | 0.00 | 79 | 1015.9 |
| 20260505073204 | 12 | 333 | 0.0 | 1.6 | 0.00 | 0.00 | 0.00 | 80 | 1015.9 |
| 20260505072704 | 13 | 320 | 0.0 | 1.6 | 0.00 | 0.00 | 0.00 | 80 | 1015.8 |
| 20260505072205 | 13 | 5 | 0.0 | 1.6 | 0.00 | 0.00 | 0.00 | 80 | 1015.8 |
| 20260505071706 | 13 | 25 | 0.0 | 4.8 | 0.00 | 0.00 | 0.00 | 80 | 1015.8 |
| 20260505071205 | 13 | 25 | 0.0 | 4.8 | 0.00 | 0.00 | 0.00 | 80 | 1015.8 |
| 20260505070206 | 13 | 321 | 1.6 | 4.8 | 0.00 | 0.00 | 0.00 | 79 | 1015.8 |
| 20260505065205 | 13 | 206 | 0.0 | 0.0 | 0.00 | 0.00 | 0.00 | 79 | 1015.8 |
| 20260505064205 | 13 | 206 | 0.0 | 0.0 | 0.00 | 0.00 | 0.00 | 79 | 1015.6 |
| 20260505063706 | 13 | 206 | 0.0 | 0.0 | 0.00 | 0.00 | 0.00 | 79 | 1015.6 |
| 20260505063204 | 13 | 206 | 0.0 | 0.0 | 0.00 | 0.00 | 0.00 | 79 | 1015.5 |
| 20260505062704 | 13 | 206 | 0.0 | 0.0 | 0.00 | 0.00 | 0.00 | 79 | 1015.5 |
| 20260505061704 | 13 | 206 | 0.0 | 0.0 | 0.00 | 0.00 | 0.00 | 79 | 1015.6 |
| 20260505061205 | 13 | 206 | 0.0 | 0.0 | 0.00 | 0.00 | 0.00 | 78 | 1015.6 |
| 20260505060705 | 13 | 206 | 0.0 | 0.0 | 0.00 | 0.00 | 0.00 | 78 | 1015.7 |
| 20260505060205 | 13 | 66 | 0.0 | 3.2 | 0.00 | 0.00 | 0.00 | 78 | 1015.7 |
| 20260505055205 | 13 | 66 | 1.6 | 3.2 | 0.00 | 0.00 | 0.00 | 78 | 1015.9 |
| 20260505054705 | 13 | 66 | 1.6 | 3.2 | 0.00 | 0.00 | 0.00 | 78 | 1015.9 |
| 20260505054204 | 13 | 51 | 0.0 | 3.2 | 0.00 | 0.00 | 0.00 | 78 | 1015.9 |
| 20260505053704 | 13 | 45 | 0.0 | 3.2 | 0.00 | 0.00 | 0.00 | 78 | 1016.0 |
| 20260505053205 | 13 | 54 | 0.0 | 3.2 | 0.00 | 0.00 | 0.00 | 78 | 1015.9 |
| 20260505052704 | 13 | 54 | 0.0 | 4.8 | 0.00 | 0.00 | 0.00 | 78 | 1015.9 |
| 20260505052204 | 13 | 45 | 0.0 | 9.7 | 0.00 | 0.00 | 0.00 | 77 | 1016.0 |
| 20260505051704 | 13 | 57 | 1.6 | 11.3 | 0.00 | 0.00 | 0.00 | 77 | 1016.0 |
| 20260505051204 | 13 | 75 | 3.2 | 11.3 | 0.00 | 0.00 | 0.00 | 77 | 1016.0 |
| 20260505050205 | 13 | 79 | 3.2 | 8.0 | 0.00 | 0.00 | 0.00 | 77 | 1016.0 |
| 20260505041705 | 14 | 248 | 1.6 | 4.8 | 0.00 | 0.00 | 0.00 | 76 | 1015.5 |
| 20260505041204 | 14 | 248 | 1.6 | 4.8 | 0.00 | 0.00 | 0.00 | 75 | 1015.4 |
| 20260505040705 | 14 | 225 | 1.6 | 6.4 | 0.00 | 0.00 | 0.00 | 75 | 1015.3 |
| 20260505040205 | 14 | 225 | 1.6 | 6.4 | 0.00 | 0.00 | 0.00 | 75 | 1015.2 |
| 20260505035705 | 14 | 260 | 3.2 | 6.4 | 0.00 | 0.00 | 0.00 | 75 | 1015.2 |
| 20260505035204 | 14 | 229 | 3.2 | 6.4 | 0.00 | 0.00 | 0.00 | 75 | 1015.2 |
| 20260505034704 | 14 | 227 | 3.2 | 8.0 | 0.00 | 0.00 | 0.00 | 74 | 1015.0 |
| 20260505034204 | 14 | 224 | 3.2 | 8.0 | 0.00 | 0.00 | 0.00 | 74 | 1015.0 |
| 20260505033706 | 14 | 215 | 3.2 | 8.0 | 0.00 | 0.00 | 0.00 | 74 | 1014.9 |
| 20260505032705 | 15 | 226 | 3.2 | 8.0 | 0.00 | 0.00 | 0.00 | 73 | 1014.8 |
| 20260505032204 | 15 | 267 | 3.2 | 8.0 | 0.00 | 0.00 | 0.00 | 73 | 1014.8 |
| 20260505031705 | 15 | 279 | 4.8 | 8.0 | 0.00 | 0.00 | 0.00 | 73 | 1015.0 |
| 20260505030705 | 15 | 295 | 3.2 | 9.7 | 0.00 | 0.00 | 0.00 | 72 | 1015.0 |
| 20260505030205 | 15 | 215 | 3.2 | 9.7 | 0.00 | 0.00 | 0.00 | 72 | 1015.0 |
| 20260505025704 | 15 | 252 | 4.8 | 8.0 | 0.00 | 0.00 | 0.00 | 71 | 1015.0 |
| 20260505025204 | 15 | 242 | 3.2 | 9.7 | 0.00 | 0.00 | 0.00 | 71 | 1014.9 |
| 20260505024706 | 15 | 240 | 3.2 | 12.9 | 0.00 | 0.00 | 0.00 | 70 | 1015.0 |
| 20260505024205 | 15 | 252 | 4.8 | 12.9 | 0.00 | 0.00 | 0.00 | 68 | 1014.9 |
| 20260505023705 | 15 | 229 | 6.4 | 12.9 | 0.00 | 0.00 | 0.00 | 66 | 1015.0 |
| 20260505023206 | 16 | 245 | 6.4 | 12.9 | 0.00 | 0.00 | 0.00 | 66 | 1014.8 |
| 20260505022204 | 16 | 252 | 6.4 | 12.9 | 0.00 | 0.00 | 0.00 | 65 | 1014.8 |
| 20260505021705 | 16 | 257 | 6.4 | 14.5 | 0.00 | 0.00 | 0.00 | 65 | 1014.8 |
| 20260505021204 | 16 | 252 | 6.4 | 14.5 | 0.00 | 0.00 | 0.00 | 63 | 1014.7 |
| 20260505020704 | 16 | 224 | 8.0 | 16.1 | 0.00 | 0.00 | 0.00 | 63 | 1014.7 |
| 20260505015704 | 16 | 309 | 8.0 | 16.1 | 0.00 | 0.00 | 0.00 | 63 | 1014.8 |
| 20260505015205 | 16 | 274 | 8.0 | 16.1 | 0.00 | 0.00 | 0.00 | 63 | 1014.8 |
| 20260505014205 | 16 | 234 | 6.4 | 14.5 | 0.00 | 0.00 | 0.00 | 62 | 1014.9 |
| 20260505013205 | 17 | 275 | 8.0 | 20.9 | 0.00 | 0.00 | 0.00 | 61 | 1015.0 |
| 20260505012704 | 17 | 239 | 9.7 | 20.9 | 0.00 | 0.00 | 0.00 | 59 | 1015.0 |
| 20260505012204 | 17 | 244 | 8.0 | 16.1 | 0.00 | 0.00 | 0.00 | 59 | 1015.0 |
| 20260505011704 | 17 | 239 | 8.0 | 16.1 | 0.00 | 0.00 | 0.00 | 59 | 1015.0 |
| 20260505011204 | 17 | 248 | 9.7 | 16.1 | 0.00 | 0.00 | 0.00 | 59 | 1015.1 |
| 20260505010704 | 17 | 267 | 8.0 | 17.7 | 0.00 | 0.00 | 0.00 | 59 | 1015.2 |
| 20260505005705 | 17 | 287 | 9.7 | 20.9 | 0.00 | 0.00 | 0.00 | 60 | 1015.2 |
| 20260505005205 | 17 | 244 | 9.7 | 20.9 | 0.00 | 0.00 | 0.00 | 59 | 1015.3 |
| 20260505004704 | 17 | 239 | 8.0 | 17.7 | 0.00 | 0.00 | 0.00 | 58 | 1015.4 |
| 20260505003704 | 18 | 262 | 9.7 | 24.1 | 0.00 | 0.00 | 0.00 | 56 | 1015.3 |
| 20260505003206 | 18 | 249 | 11.3 | 24.1 | 0.00 | 0.00 | 0.00 | 56 | 1015.3 |
| 20260505002705 | 18 | 215 | 11.3 | 24.1 | 0.00 | 0.00 | 0.00 | 56 | 1015.4 |
| 20260505002205 | 18 | 225 | 9.7 | 20.9 | 0.00 | 0.00 | 0.00 | 58 | 1015.5 |
| 20260505001705 | 18 | 246 | 9.7 | 20.9 | 0.00 | 0.00 | 0.00 | 58 | 1015.3 |
| 20260505001204 | 18 | 252 | 12.9 | 20.9 | 0.00 | 0.00 | 0.00 | 57 | 1015.3 |
| 20260505000705 | 18 | 241 | 11.3 | 20.9 | 0.00 | 0.00 | 0.00 | 58 | 1015.2 |
| 20260505000205 | 18 | 239 | 9.7 | 20.9 | 0.00 | 0.00 | 0.00 | 58 | 1015.2 |
| 20260504235704 | 18 | 202 | 9.7 | 17.7 | 0.00 | 0.00 | 0.00 | 57 | 1015.1 |
| 20260504235204 | 18 | 254 | 8.0 | 17.7 | 0.00 | 0.00 | 0.00 | 58 | 1015.2 |
| 20260504234704 | 18 | 271 | 8.0 | 17.7 | 0.00 | 0.00 | 0.00 | 61 | 1015.3 |
| 20260504233205 | 18 | 234 | 9.7 | 22.5 | 0.00 | 0.00 | 0.00 | 60 | 1015.3 |
| 20260504232704 | 18 | 175 | 9.7 | 22.5 | 0.00 | 0.00 | 0.00 | 58 | 1015.3 |
| 20260504232204 | 18 | 207 | 11.3 | 20.9 | 0.00 | 0.00 | 0.00 | 58 | 1015.3 |
| 20260504231204 | 18 | 239 | 9.7 | 19.3 | 0.00 | 0.00 | 0.00 | 61 | 1015.5 |
| 20260504230705 | 18 | 185 | 9.7 | 24.1 | 0.00 | 0.00 | 0.00 | 61 | 1015.4 |
| 20260504230204 | 18 | 233 | 9.7 | 24.1 | 0.00 | 0.00 | 0.00 | 61 | 1015.4 |
| 20260504225704 | 18 | 212 | 11.3 | 24.1 | 0.00 | 0.00 | 0.00 | 63 | 1015.5 |
| 20260504225204 | 18 | 188 | 11.3 | 24.1 | 0.00 | 0.00 | 0.00 | 62 | 1015.3 |
| 20260504224704 | 18 | 226 | 9.7 | 20.9 | 0.00 | 0.00 | 0.00 | 62 | 1015.4 |
| 20260504222205 | 18 | 192 | 11.3 | 24.1 | 0.00 | 0.00 | 0.00 | 67 | 1015.5 |
| 20260504221204 | 18 | 220 | 9.7 | 22.5 | 0.00 | 0.00 | 0.00 | 67 | 1015.7 |
| 20260504220705 | 18 | 256 | 11.3 | 22.5 | 0.00 | 0.00 | 0.00 | 66 | 1015.7 |
| 20260504220203 | 18 | 223 | 11.3 | 24.1 | 0.00 | 0.00 | 0.00 | 66 | 1015.8 |
| 20260504215704 | 18 | 209 | 9.7 | 24.1 | 0.00 | 0.00 | 0.00 | 65 | 1015.8 |
| 20260504215205 | 18 | 279 | 9.7 | 24.1 | 0.00 | 0.00 | 0.00 | 65 | 1015.9 |
| 20260504214706 | 18 | 214 | 9.7 | 27.4 | 0.00 | 0.00 | 0.00 | 65 | 1015.9 |
| 20260504214205 | 18 | 225 | 11.3 | 27.4 | 0.00 | 0.00 | 0.00 | 66 | 1015.9 |
| 20260504213704 | 18 | 227 | 11.3 | 27.4 | 0.00 | 0.00 | 0.00 | 67 | 1015.9 |
| 20260504213204 | 17 | 254 | 11.3 | 22.5 | 0.00 | 0.00 | 0.00 | 67 | 1015.9 |
| 20260504212205 | 17 | 233 | 11.3 | 24.1 | 0.00 | 0.00 | 0.00 | 71 | 1016.1 |
| 20260504211704 | 17 | 215 | 11.3 | 24.1 | 0.00 | 0.00 | 0.00 | 71 | 1016.2 |
| 20260504211205 | 17 | 225 | 11.3 | 29.0 | 0.00 | 0.00 | 0.00 | 72 | 1016.2 |
| 20260504210705 | 17 | 243 | 11.3 | 29.0 | 0.00 | 0.00 | 0.00 | 72 | 1016.2 |
| 20260504205704 | 17 | 228 | 12.9 | 22.5 | 0.00 | 0.00 | 0.00 | 73 | 1016.2 |
| 20260504205204 | 17 | 207 | 11.3 | 22.5 | 0.00 | 0.00 | 0.00 | 72 | 1016.2 |
| 20260504204705 | 17 | 161 | 9.7 | 25.7 | 0.00 | 0.00 | 0.00 | 72 | 1016.2 |
| 20260504204204 | 17 | 203 | 11.3 | 25.7 | 0.00 | 0.00 | 0.00 | 73 | 1016.2 |
| 20260504203704 | 17 | 166 | 11.3 | 25.7 | 0.00 | 0.00 | 0.00 | 73 | 1016.2 |
| 20260504202206 | 17 | 221 | 9.7 | 22.5 | 0.00 | 0.00 | 0.00 | 75 | 1016.4 |
| 20260504201705 | 16 | 257 | 11.3 | 22.5 | 0.00 | 0.00 | 0.00 | 75 | 1016.4 |
| 20260504201204 | 16 | 206 | 11.3 | 24.1 | 0.00 | 0.00 | 0.00 | 76 | 1016.4 |
| 20260504195705 | 16 | 223 | 11.3 | 24.1 | 0.00 | 0.00 | 0.00 | 76 | 1016.5 |
| 20260504195204 | 16 | 229 | 11.3 | 22.5 | 0.00 | 0.00 | 0.00 | 78 | 1016.5 |
| 20260504194704 | 16 | 203 | 12.9 | 20.9 | 0.00 | 0.00 | 0.00 | 77 | 1016.7 |
| 20260504194205 | 16 | 227 | 12.9 | 20.9 | 0.00 | 0.00 | 0.00 | 77 | 1016.5 |
| 20260504193705 | 16 | 223 | 11.3 | 19.3 | 0.00 | 0.00 | 0.00 | 77 | 1016.5 |
| 20260504193204 | 15 | 188 | 11.3 | 22.5 | 0.00 | 0.00 | 0.00 | 76 | 1016.6 |
| 20260504192704 | 15 | 256 | 11.3 | 22.5 | 0.00 | 0.00 | 0.00 | 76 | 1016.6 |
| 20260504192205 | 16 | 218 | 11.3 | 20.9 | 0.00 | 0.00 | 0.00 | 74 | 1016.6 |
| 20260504191704 | 16 | 196 | 9.7 | 22.5 | 0.00 | 0.00 | 0.00 | 73 | 1016.5 |
| 20260504191204 | 16 | 141 | 9.7 | 22.5 | 0.00 | 0.00 | 0.00 | 73 | 1016.6 |
| 20260504190705 | 16 | 198 | 9.7 | 17.7 | 0.00 | 0.00 | 0.00 | 74 | 1016.5 |
| 20260504190205 | 16 | 175 | 9.7 | 17.7 | 0.00 | 0.00 | 0.00 | 74 | 1016.5 |
| 20260504185204 | 16 | 225 | 8.0 | 19.3 | 0.00 | 0.00 | 0.00 | 75 | 1016.7 |
| 20260504184705 | 16 | 167 | 8.0 | 19.3 | 0.00 | 0.00 | 0.00 | 75 | 1016.7 |
| 20260504183204 | 16 | 188 | 9.7 | 17.7 | 0.00 | 0.00 | 0.00 | 73 | 1016.7 |
| 20260504182704 | 16 | 195 | 8.0 | 16.1 | 0.00 | 0.00 | 0.00 | 74 | 1016.6 |
| 20260504182204 | 16 | 202 | 9.7 | 16.1 | 0.00 | 0.00 | 0.00 | 74 | 1016.6 |
| 20260504181705 | 16 | 123 | 9.7 | 16.1 | 0.00 | 0.00 | 0.00 | 73 | 1016.6 |
| 20260504181204 | 16 | 175 | 9.7 | 14.5 | 0.00 | 0.00 | 0.00 | 73 | 1016.5 |
| 20260504180704 | 16 | 207 | 8.0 | 16.1 | 0.00 | 0.00 | 0.00 | 73 | 1016.6 |
| 20260504175204 | 16 | 215 | 8.0 | 16.1 | 0.00 | 0.00 | 0.00 | 75 | 1016.4 |
| 20260504174704 | 16 | 211 | 8.0 | 16.1 | 0.00 | 0.00 | 0.00 | 75 | 1016.2 |
| 20260504174205 | 16 | 168 | 6.4 | 17.7 | 0.00 | 0.00 | 0.00 | 74 | 1016.1 |
| 20260504173704 | 16 | 189 | 6.4 | 17.7 | 0.00 | 0.00 | 0.00 | 76 | 1016.1 |
| 20260504173204 | 16 | 151 | 6.4 | 14.5 | 0.00 | 0.00 | 0.00 | 75 | 1016.2 |
| 20260504172206 | 16 | 192 | 6.4 | 12.9 | 0.00 | 0.00 | 0.00 | 76 | 1016.2 |